SENTINEL-3B

Last updated on Sun Sep 20 2026 00:02:39 GMT+0000 (Coordinated Universal Time)

1 43437U 18039A 26262.51435183 .00000036 00000+0 32861-4 0 9992 2 43437 98.6272 328.6813 0001260 75.1387 284.9933 14.26738150437579
UTC large
Height (km)
Speed (km/s)
/
Latitude / Longitude
Inclination (degrees)
Orbital Period (minutes)
Azimuth
Elevation
Range (km)
Doppler Factor

Next 0 passes for location: London (51.5072 / 0.1276)

No passes found over London.
SENTINEL-3B